This is the latest recevied weather packets stored in our database for station/object KC4JES. If no packets are shown the sender has not sent any weather packets the latest 10 day(s).
| Time | Temp. | Humidity | Pressure | Rain* | Wind** | Luminosity | Snow |
|---|---|---|---|---|---|---|---|
| 1778088676 | 30° C | 62% | 1017.6 hPa | 0 mm | - | 720 W/m² | - |
| 1778088373 | 30° C | 60% | 1017.8 hPa | 0 mm | - | 759 W/m² | - |
| 1778088069 | 30° C | 61% | 1017.7 hPa | 0 mm | - | 673 W/m² | - |
| 1778087767 | 30.56° C | 57% | 1017.8 hPa | 0 mm | - | 246 W/m² | - |
| 1778087465 | 31.11° C | 56% | 1017.8 hPa | 0 mm | - | 209 W/m² | - |
| 1778087162 | 31.11° C | 53% | 1017.8 hPa | 0 mm | - | 193 W/m² | - |
| 1778086859 | 30.56° C | 51% | 1017.8 hPa | 0 mm | - | 171 W/m² | - |
| 1778086558 | 30.56° C | 51% | 1018.1 hPa | 0 mm | - | 189 W/m² | - |
| 1778086253 | 31.11° C | 50% | 1017.7 hPa | 0 mm | - | 195 W/m² | - |
| 1778085951 | 31.11° C | 50% | 1017.9 hPa | 0 mm | - | 190 W/m² | - |
| 1778085648 | 30.56° C | 55% | 1018.2 hPa | 0 mm | - | 194 W/m² | - |
| 1778085344 | 30.56° C | 54% | 1018 hPa | 0 mm | - | 152 W/m² | - |
| 1778085040 | 30.56° C | 54% | 1018 hPa | 0 mm | - | 136 W/m² | - |
| 1778084736 | 30.56° C | 54% | 1017.8 hPa | 0 mm | - | 143 W/m² | - |
| 1778084433 | 30.56° C | 53% | 1018.2 hPa | 0 mm | - | 125 W/m² | - |
| 1778084131 | 30° C | 54% | 1018 hPa | 0 mm | - | 113 W/m² | - |
| 1778083828 | 30° C | 55% | 1018 hPa | 0 mm | - | 131 W/m² | - |
| 1778083525 | 30° C | 55% | 1018 hPa | 0 mm | - | 128 W/m² | - |
| 1778083222 | 29.44° C | 55% | 1018.2 hPa | 0 mm | - | 123 W/m² | - |
| 1778082921 | 29.44° C | 56% | 1018.2 hPa | 0 mm | - | 90 W/m² | - |
| 1778081812 | 28.89° C | 56% | 1018.2 hPa | 0 mm | - | 90 W/m² | - |
| 1778081509 | 28.89° C | 59% | 1018.3 hPa | 0 mm | - | 88 W/m² | - |
| 1778081206 | 28.33° C | 61% | 1018.3 hPa | 0 mm | - | 81 W/m² | - |
| 1778080903 | 28.33° C | 60% | 1018.3 hPa | 0 mm | - | 77 W/m² | - |
| 1778080602 | 28.33° C | 59% | 1018.6 hPa | 0 mm | - | 85 W/m² | - |
* Rain latest hour (hover to see other rain measurements)
** Current wind speed in m/s (hover to see current wind gust speed)